Погода в Знаменке

Россия / Смоленская область     54°54′29″N   34°34′32″E
темп.,
°C
ветер,
м/с
пор.,
м/с
влажн.,
%
обл.,
%
осадки,
мм/ч
давл.,
гПа
погр.,
м
17 мая, пн
пн1700:00+12всв228828 0.0 101320
03:00+11в239023 0.0 101342
06:00+12в2692100 0.0 1013136
09:00+18вюв51069100 0.0 1012475
12:00+22в69637 0.1 1010998
15:00+25вюв710608 0.1 10081525
18:00+23юв61164100 0.3 1007845
21:00+19вюв614765 0.3 1007519
18 мая, вт
вт1800:00+17юв514770 0.0 1006467
03:00+15вюв41188100 0.0 1006303
06:00+15юв41190100 0.0 1006315
09:00+20юв5976100 0.0 1006582
12:00+24ююв71061100 0.0 10061590
15:00+23ююв596831 2.0 10061295
18:00+21юв51075100 1.4 1005945
21:00+17юв368499 2.4 100596
19 мая, ср
ср1900:00+15юв359381 0.1 100589
03:00+15в1193100 0.4 100433
06:00+14вюв499489 0.1 1005333
09:00+17юв5882100 0.1 1006566
12:00+20юв5867100 0.5 10061151
15:00+21ююв6863100 1.1 10071417
18:00+19юв4673100 0.6 1007945
21:00+15юв229299 0.8 100737
20 мая, чт
чт2000:00+13вюв229570 0.3 100728
03:00+13в1197100 0.7 100616
06:00+13вюв2699100 1.8 1005260
09:00+14юз3495100 2.3 1005375
12:00+13з269382 0.4 1005346
15:00+17ююз3568100 0.6 10051038
18:00+16ю4883100 2.2 1006672
21:00+13ююз4109428 2.8 1008401
21 мая, пт
пт2100:00+10юз51192100 0.1 1011769
03:00+9юз51195100 0.1 1013526
06:00+9юз3109398 0.0 1014447
09:00+13зюз46739 0.0 1016766
12:00+16юз3459100 0.0 10171316
15:00+11ю2585100 0.0 1017191
18:00+12зюз1192100 0.8 101769
21:00+11зсз1295100 1.7 101879